Location: Newark
(51.4502°N, 2.1514°W)
Time: 12:12:25
(UTC+00:00)

Envisat - Visible Passes

Search period start: 24 September 2020 00:00
Search period end: 04 October 2020 00:00
Orbit: 764 x 766 km, 98.1° (Epoch: 23 September)

Date Brightness Start Highest point End Pass type
(mag) Time Alt. Az. Time Alt. Az. Time Alt. Az.
24 Sep 6.2 18:47:16 10° SW 18:50:21 16° W 18:53:27 10° NW visible
25 Sep 6.0 05:09:45 10° NE 05:13:33 21° E 05:17:19 10° SE visible
26 Sep 6.7 04:35:57 10° E 04:36:11 10° E 04:36:26 10° E visible
27 Sep 6.1 18:35:13 10° SW 18:38:50 19° W 18:42:30 10° NW visible
28 Sep 6.1 04:58:46 10° NE 05:02:03 17° E 05:05:18 10° SE visible
29 Sep 6.6 19:02:47 10° WSW 19:04:40 12° W 19:06:33 10° WNW visible
30 Sep 5.5 05:23:29 10° NE 05:27:47 27° E 05:32:04 10° SSE visible
30 Sep 5.8 18:23:18 10° SW 18:27:21 24° W 18:31:26 10° NW visible
01 Oct 6.3 04:47:57 10° NE 04:50:31 14° E 04:53:04 10° ESE visible
02 Oct 6.3 18:50:18 10° WSW 18:53:08 15° W 18:55:58 10° NW visible
03 Oct 5.9 05:12:22 10° NE 05:16:18 22° E 05:20:14 10° SE visible
03 Oct 5.4 18:11:30 10° SSW 18:15:53 29° W 18:20:17 10° NNW visible
